This is the latest recevied weather packets stored in our database for station/object N4DWK. If no packets are shown the sender has not sent any weather packets the latest 10 day(s).
| Time | Temp. | Humidity | Pressure | Rain* | Wind** | Luminosity | Snow |
|---|---|---|---|---|---|---|---|
| 1778068806 | 18.33° C | 77% | 1011.7 hPa | 0 mm | - | 54 W/m² | - |
| 1778068505 | 18.33° C | 77% | 1011.7 hPa | 0 mm | - | 54 W/m² | - |
| 1778068205 | 18.33° C | 77% | 1011.8 hPa | 0 mm | - | 44 W/m² | - |
| 1778067905 | 18.33° C | 77% | 1011.8 hPa | 0 mm | - | 37 W/m² | - |
| 1778067606 | 18.33° C | 77% | 1011.7 hPa | 0 mm | - | 49 W/m² | - |
| 1778067305 | 18.33° C | 77% | 1011.7 hPa | 0 mm | - | 49 W/m² | - |
| 1778067006 | 18.33° C | 77% | 1011.7 hPa | 0 mm | - | 44 W/m² | - |
| 1778066705 | 18.33° C | 77% | 1011.7 hPa | 0 mm | - | 37 W/m² | - |
| 1778066405 | 18.33° C | 78% | 1011.7 hPa | 0 mm | - | 28 W/m² | - |
| 1778066106 | 18.33° C | 78% | 1011.6 hPa | 0 mm | - | 26 W/m² | - |
| 1778065805 | 17.78° C | 78% | 1011.6 hPa | 0 mm | - | 25 W/m² | - |
| 1778065505 | 17.78° C | 78% | 1011.5 hPa | 0 mm | - | 18 W/m² | - |
| 1778065206 | 17.78° C | 77% | 1011.5 hPa | 0 mm | - | 16 W/m² | - |
| 1778064905 | 17.78° C | 77% | 1011.6 hPa | 0 mm | - | 11 W/m² | - |
| 1778064605 | 17.78° C | 77% | 1011.7 hPa | 0 mm | - | 11 W/m² | - |
| 1778064305 | 17.78° C | 77% | 1011.7 hPa | 0 mm | - | 11 W/m² | - |
| 1778064005 | 17.78° C | 77% | 1011.7 hPa | 0 mm | - | 9 W/m² | - |
| 1778063705 | 17.78° C | 77% | 1011.8 hPa | 0 mm | - | 5 W/m² | - |
| 1778063405 | 17.78° C | 77% | 1011.9 hPa | 0 mm | - | 5 W/m² | - |
| 1778063105 | 17.78° C | 77% | 1012 hPa | 0 mm | - | 0 W/m² | - |
| 1778062805 | 17.78° C | 77% | 1011.9 hPa | 0 mm | - | 0 W/m² | - |
| 1778062505 | 17.78° C | 77% | 1011.7 hPa | 0 mm | - | 0 W/m² | - |
| 1778062205 | 17.78° C | 77% | 1011.6 hPa | 0 mm | - | 0 W/m² | - |
| 1778061904 | 17.78° C | 77% | 1011.5 hPa | 0 mm | - | 0 W/m² | - |
| 1778061604 | 17.78° C | 77% | 1011.6 hPa | 0 mm | - | 0 W/m² | - |
* Rain latest hour (hover to see other rain measurements)
** Current wind speed in m/s (hover to see current wind gust speed)